SCP
0 0 0 0 0 0 0 0 0 0 0 0 0 0 0 0 0 0 0 0 0 0 0 0 0 0 0 0 0 0 0 0 0 0 0 0 0 0 0 0 0 0 0
0 0 0 0 0 0 0 0 0 0 0 0 0 0 0 0 0 0 0 0 0 0 0 0 0 0 0 0 0 0 0 0 0 0 0 0 0 0 0 0 0 0 0
0 0 0 0 0 0 0 0 0 0 0 0 0 0 0 0 0 0 0 0 0 0 0 0 0 0 0 0 0 0 0 0 0 0 0 0 0 0 0 0 0 0 0
0 0 0 0 0 0 0 0 0 0 0 0 0 0 0 0 0 0 0 0 0 0 0 0 0 0 0 0 0 0 0 0 0 0 0 0 0 0 0 0 0 0 0
0 0 0 0 0 0 0 0 0 0 0 0 0 0 0 0 0 0 0 0 0 0 0 0 0 0 0 0 0 0 0 0 0 0 0 0 0 0 0 0 0 0 0
0 0 0 0 0 0 0 0 0 0 0 0 0 0 0 0 0 0 0 0 0 0 0 0 0 0 0 0 0 0 0 0 0 0 0 0 0 0 0 0 0 0 0
0 0 0 0 0 0 0 0 0 0 0 0 0 0 0 0 0 0 0 0 0 0 0 0 0 0 0 0 0 0 0 0 0 0 0 0 0 0 0 0 0 0 0
0 0 0 0 0 0 0 0 0 0 0 0 0 0 0 0 0 0 0 0 0 0 0 0 0 0 0 0 0 0 0 0 0 0 0 0 0 0 0 0 0 0 0
0 0 0 0 0 0 0 0 0 0 0 0 0 0 0 0 0 0 0 0 0 0 0 0 0 0 0 0 0 0 0 0 0 0 0 0 0 0 0 0 0 0 0
0 0 0 0 0 0 0 0 0 0 0 0 0 0 0 0 0 0 0 0 0 0 0 0 0 0 0 0 0 0 0 0 0 0 0 0 0 0 0 0 0 0 0
0 0 0 0 0 0 0 0 0 0 0 0 0 0 0 0 0 0 0 0 0 0 0 0 0 0 0 0 0 0 0 0 0 0 0 0 0 0 0 0 0 0 0
0 0 0 0 0 0 0 0 0 0 0 0 0 0 0 0 0 0 0 0 0 0 0 0 0 0 0 0 0 0 0 0 0 0 0 0 0 0 0 0 0 0 0
0 0 0 0 0 0 0 0 0 0 0 0 0 0 0 0 0 0 0 0 0 0 0 0 0 0 0 0 0 0 0 0 0 0 0 0 0 0 0 0 0 0 0
0 0 0 0 0 0 0 0 0 0 0 0 0 0 0 0 0 0 0 0 0 0 0 0 0 0 0 0 0 0 0 0 0 0 0 0 0 0 0 0 0 0 0
0 0 0 0 0 0 0 0 0 0 0 0 0 0 0 0 0 0 0 0 0 0 0 0 0 0 0 0 0 0 0 0 0 0 0 0 0 0 0 0 0 0 0
0 0 0 0 0 0 0 0 0 0 0 0 0 0 0 0 0 0 0 0 0 0 0 0 0 0 0 0 0 0 0 0 0 0 0 0 0 0 0 0 0 0 0
0 0 0 0 0 0 0 0 0 0 0 0 0 0 0 0 0 0 0 0 0 0 0 0 0 0 0 0 0 0 0 0 0 0 0 0 0 0 0 0 0 0 0
0 0 0 0 0 0 0 0 0 0 0 0 0 0 0 0 0 0 0 0 0 0 0 0 0 0 0 0 0 0 0 0 0 0 0 0 0 0 0 0 0 0 0
0 0 0 0 0 0 0 0 0 0 0 0 0 0 0 0 0 0 0 0 0 0 0 0 0 0 0 0 0 0 0 0 0 0 0 0 0 0 0 0 0 0 0
0 0 0 0 0 0 0 0 0 0 0 0 0 0 0 0 0 0 0 0 0 0 0 0 0 0 0 0 0 0 0 0 0 0 0 0 0 0 0 0 0 0 0
0 0 0 0 0 0 0 0 0 0 0 0 0 0 0 0 0 0 0 0 0 0 0 0 0 0 0 0 0 0 0 0 0 0 0 0 0 0 0 0 0 0 0
0 0 0 0 0 0 0 0 0 0 0 0 0 0 0 0 0 0 0 0 0 0 0 0 0 0 0 0 0 0 0 0 0 0 0 0 0 0 0 0 0 0 0
0 0 0 0 0 0 0 0 0 0 0 0 0 0 0 0 0 0 0 0 0 0 0 0 0 0 0 0 0 0 0 0 0 0 0 0 0 0 0 0 0 0 0
0 0 0 0 0 0 0 0 0 0 0 0 0 0 0 0 0 0 0 0 0 0 0 0 0 0 0 0 0 0 0 0 0 0 0 0 0 0 0 0 0 0 0
0 0 0 0 0 0 0 0 0 0 0 0 0 0 0 0 0 0 0 0 0 0 0 0 0 0 0 0 0 0 0 0 0 0 0 0 0 0 0 0 0 0 0
0 0 0 0 0 0 0 0 0 0 0 0 0 0 0 0 0 0 0 0 0 0 0 0 0 0 0 0 0 0 0 0 0 0 0 0 0 0 0 0 0 0 0
Wind_Speed_500mb
32 28 29 25 22 20 18 10 10 14 17 21 23 24 26 27 28 32 30 26 29 29 31 32 34 33 35 37 38 40 42 45 47 48 49 50 50 52 53 53 54 56 56
36 34 34 31 30 31 25 17 10 16 19 22 24 25 26 26 27 28 26 19 14 15 24 30 30 31 33 34 35 37 39 41 42 43 45 46 49 50 52 53 55 55 55
45 39 36 40 33 43 33 22 14 18 22 27 27 28 28 27 27 25 23 18 13 12 14 16 19 25 30 31 33 34 34 35 36 39 42 45 46 47 49 51 52 54 56
50 48 45 43 43 42 41 32 22 19 27 30 33 34 32 29 26 23 20 17 15 13 10 8 10 16 23 28 29 30 31 34 37 40 42 43 44 46 48 50 53 55 58
57 56 57 51 48 48 51 39 32 25 32 38 39 37 34 31 29 25 22 18 15 13 9 8 9 13 15 17 20 25 29 32 35 37 39 40 43 46 48 51 54 56 60
66 65 64 58 56 57 60 49 41 32 37 42 43 39 37 34 31 28 24 20 16 12 8 4 4 7 10 12 15 19 24 28 32 34 35 38 43 47 49 49 52 56 59
69 73 69 65 65 58 70 59 49 41 44 50 49 40 36 34 32 30 26 22 18 14 9 5 1 5 9 12 15 17 21 24 28 31 34 39 43 45 47 48 51 56 59
78 76 78 70 72 68 78 68 62 53 51 58 55 43 28 29 36 34 30 26 21 17 13 8 4 6 9 12 15 17 20 24 27 29 32 37 41 44 47 49 52 55 60
83 81 79 77 74 77 76 78 62 60 59 63 66 31 21 20 37 38 34 30 27 24 17 12 10 8 11 13 16 19 21 23 25 26 29 34 39 44 48 50 53 57 61
83 82 82 77 72 75 78 65 66 63 63 70 73 63 36 30 23 21 38 37 34 28 23 18 13 11 13 15 17 19 21 23 25 25 29 33 39 44 48 52 55 59 64
82 83 77 81 83 96 82 92 80 72 69 72 78 75 56 37 28 20 24 41 41 35 28 22 18 17 17 17 18 20 22 25 28 27 30 33 40 45 51 57 61 66 71
84 86 84 85 91 99 98 83 72 74 72 77 76 76 73 55 43 31 25 31 34 34 31 26 23 22 20 20 19 21 25 29 31 31 34 38 44 48 54 60 66 71 74
89 85 85 78 77 79 75 72 72 74 79 80 77 78 65 58 48 42 37 33 29 29 31 29 27 25 23 22 23 24 28 31 33 36 40 44 49 53 57 64 69 76 82
83 82 84 82 82 78 81 74 75 79 81 82 79 73 65 55 49 42 43 36 29 25 29 25 25 26 24 23 25 28 32 36 39 43 46 50 54 57 63 67 72 80 86
77 84 85 84 83 85 80 77 80 83 80 82 79 70 63 56 49 43 39 34 28 21 20 22 24 24 23 25 28 31 36 40 44 49 52 55 59 63 68 71 76 80 88
76 82 77 81 86 86 82 83 84 83 79 80 77 69 62 55 50 44 36 31 22 12 17 22 23 27 26 28 32 34 39 43 48 53 58 59 63 68 71 74 73 82 88
76 75 73 81 84 83 84 86 85 80 80 80 76 68 61 56 50 44 36 26 16 15 19 24 28 30 29 32 37 41 45 49 53 56 60 64 68 72 76 67 80 85 88
78 79 76 80 82 84 86 87 85 82 82 82 76 69 63 58 51 44 33 19 18 19 20 27 32 32 32 36 39 44 49 54 59 61 68 73 77 79 66 75 86 87 90
80 83 80 84 83 85 88 87 83 84 84 80 76 71 67 61 54 43 23 22 21 21 24 30 33 35 35 39 44 48 52 58 63 69 74 77 83 75 73 81 86 87 88
80 83 82 82 82 83 89 87 85 85 82 80 76 71 66 60 52 32 24 28 25 23 31 31 35 37 40 45 50 54 58 62 69 73 78 76 80 80 81 85 85 88 84
78 78 81 83 82 84 89 87 85 85 86 83 77 70 66 61 46 27 31 31 26 34 33 33 38 41 45 49 53 58 64 69 74 77 74 86 78 82 89 89 82 81 69
78 80 82 82 80 84 89 89 88 90 89 84 80 73 68 60 44 30 35 31 32 38 34 36 43 49 50 53 57 61 67 70 82 78 76 92 74 88 89 81 79 63 78
75 79 80 81 80 84 89 92 92 91 90 85 79 78 72 59 35 28 38 35 46 42 38 44 53 52 53 54 60 65 69 73 78 81 78 97 85 89 85 87 88 76 70
74 78 80 80 77 80 86 91 92 88 85 82 79 76 69 54 29 37 45 45 50 47 48 49 56 55 56 59 63 67 70 74 77 76 64 81 83 101 98 88 87 63 61
76 76 81 80 78 79 84 91 90 87 85 81 77 72 67 53 40 57 49 54 58 60 52 51 57 58 59 61 61 62 62 62 71 74 61 71 74 75 105 104 63 67 69
71 74 77 79 78 79 82 89 83 83 84 78 73 71 69 59 66 62 55 54 53 55 52 55 60 61 61 62 58 53 52 56 61 71 45 68 80 65 68 106 67 96 95
Wind_Direction_500mb
233 230 230 227 222 212 195 234 249 202 178 168 160 157 150 141 134 129 128 134 126 104 89 83 79 71 64 58 53 46 33 27 24 22 22 25 25 24 24 24 22 19 17
230 235 235 226 231 220 213 208 270 228 209 188 177 170 162 150 143 142 142 146 141 113 95 89 83 75 66 60 54 50 30 24 24 22 23 22 20 19 17 18 18 17 15
232 233 242 226 233 235 216 209 234 244 218 198 187 176 170 164 158 152 150 151 142 130 120 96 76 68 68 60 54 46 32 26 21 19 20 20 20 19 22 21 18 15 13
238 235 236 235 232 238 219 218 210 251 222 206 189 183 180 171 166 167 167 161 161 147 138 103 64 62 61 60 53 43 22 24 20 19 17 17 18 18 21 18 16 14 11
237 234 233 238 240 228 223 215 210 244 233 208 192 186 181 178 178 179 179 179 170 158 148 105 60 45 45 39 33 34 33 23 19 16 15 17 17 17 19 16 13 10 7
234 235 235 240 242 239 221 218 215 227 235 218 193 188 186 187 188 189 188 185 178 173 163 130 62 25 27 15 20 24 23 17 11 12 13 12 10 10 12 11 9 6 3
230 233 238 240 240 242 219 219 219 227 229 212 197 187 188 192 198 199 197 195 194 192 190 196 274 351 349 357 3 9 9 7 6 5 6 6 7 8 7 5 3 1 358
226 234 235 238 237 234 223 218 214 215 224 219 203 188 188 202 209 209 207 204 204 208 213 224 269 308 330 344 354 356 356 356 356 358 2 4 3 2 2 360 357 354 353
228 231 233 234 240 243 229 225 220 231 232 214 210 193 183 209 211 216 215 212 213 219 223 235 256 295 321 331 340 343 340 341 345 349 355 357 354 354 354 352 349 349 348
229 231 229 231 235 226 230 239 232 237 239 223 209 205 204 199 178 191 220 219 220 223 228 238 255 280 299 315 324 325 326 331 335 340 346 345 343 345 345 345 344 343 341
231 229 227 228 232 231 232 239 230 228 236 226 223 215 208 209 203 205 203 215 219 223 231 240 254 268 280 295 308 315 319 322 324 328 333 332 332 336 338 337 338 336 335
231 227 225 231 235 233 236 234 230 233 234 225 223 224 222 222 223 209 213 221 214 222 230 240 249 261 273 283 297 310 312 312 317 320 322 323 326 330 332 331 332 330 330
232 223 225 224 225 227 229 238 236 230 230 226 226 226 225 226 236 225 226 206 193 221 223 237 249 261 268 277 298 306 307 309 313 315 318 319 322 326 326 326 328 327 325
234 228 226 229 232 235 231 233 233 235 230 225 226 226 226 233 234 230 226 218 191 208 220 243 251 257 267 278 300 307 308 313 314 315 317 319 322 323 323 325 325 322 322
235 228 229 231 228 230 232 235 235 235 230 226 225 224 229 233 227 225 220 215 216 199 218 248 260 264 267 289 300 309 312 316 317 316 317 319 322 323 324 324 321 320 320
234 231 230 229 231 230 232 232 232 233 230 224 221 224 226 222 220 215 211 206 205 254 230 259 262 275 281 293 299 306 310 315 317 319 321 323 324 324 323 320 317 319 320
238 231 232 232 232 232 232 231 231 231 226 221 221 222 220 216 212 208 201 204 251 230 250 262 267 276 285 293 299 306 311 314 316 317 319 321 323 323 321 316 319 320 321
236 231 233 234 234 234 231 230 230 226 222 220 220 216 213 209 205 199 203 236 222 241 248 254 263 274 284 291 298 301 307 311 313 317 319 320 320 319 318 318 322 321 322
232 231 232 236 235 235 233 231 232 228 223 221 219 214 211 205 200 199 225 229 229 241 257 257 267 277 286 294 299 303 307 309 312 316 316 315 314 317 316 320 321 322 321
232 233 233 236 238 237 234 230 228 223 220 217 215 212 208 201 199 213 237 228 227 246 253 262 272 283 292 297 300 303 304 308 308 310 312 312 314 315 315 320 319 319 319
237 235 235 235 237 235 234 230 226 222 219 214 211 208 200 196 204 229 231 234 235 246 253 266 278 287 292 295 300 303 303 305 307 311 312 313 312 311 315 319 315 313 315
238 233 234 235 238 238 234 229 225 220 218 215 209 202 196 201 208 233 253 256 233 246 258 272 284 285 291 295 298 299 300 306 309 309 307 308 309 311 314 314 310 310 316
240 234 236 237 239 240 239 231 224 220 217 213 210 204 199 207 217 257 286 243 239 249 261 271 277 283 290 295 295 298 301 303 302 304 305 308 313 311 315 306 312 314 315
241 235 237 238 241 242 239 231 223 220 218 215 212 208 206 211 238 292 274 235 243 250 255 269 276 284 289 295 297 297 299 299 301 305 312 305 308 309 311 309 309 315 311
239 237 237 236 238 239 239 232 222 217 218 216 211 208 210 218 248 275 267 248 244 259 259 266 278 283 288 290 291 294 295 294 294 299 299 293 301 302 308 309 310 306 311
240 240 241 237 237 238 235 230 220 216 216 212 210 213 219 231 259 273 276 259 263 270 269 271 274 280 285 287 289 288 290 291 293 297 302 300 305 306 307 309 304 310 319
Wind_Speed_850mb
32 28 29 25 22 20 18 10 10 14 17 21 23 24 26 27 28 32 30 26 29 29 31 32 34 33 35 37 38 40 42 45 47 48 49 50 50 52 53 53 54 56 56
36 34 34 31 30 31 25 17 10 16 19 22 24 25 26 26 27 28 26 19 14 15 24 30 30 31 33 34 35 37 39 41 42 43 45 46 49 50 52 53 55 55 55
45 39 36 40 33 43 33 22 14 18 22 27 27 28 28 27 27 25 23 18 13 12 14 16 19 25 30 31 33 34 34 35 36 39 42 45 46 47 49 51 52 54 56
50 48 45 43 43 42 41 32 22 19 27 30 33 34 32 29 26 23 20 17 15 13 10 8 10 16 23 28 29 30 31 34 37 40 42 43 44 46 48 50 53 55 58
57 56 57 51 48 48 51 39 32 25 32 38 39 37 34 31 29 25 22 18 15 13 9 8 9 13 15 17 20 25 29 32 35 37 39 40 43 46 48 51 54 56 60
66 65 64 58 56 57 60 49 41 32 37 42 43 39 37 34 31 28 24 20 16 12 8 4 4 7 10 12 15 19 24 28 32 34 35 38 43 47 49 49 52 56 59
69 73 69 65 65 58 70 59 49 41 44 50 49 40 36 34 32 30 26 22 18 14 9 5 1 5 9 12 15 17 21 24 28 31 34 39 43 45 47 48 51 56 59
78 76 78 70 72 68 78 68 62 53 51 58 55 43 28 29 36 34 30 26 21 17 13 8 4 6 9 12 15 17 20 24 27 29 32 37 41 44 47 49 52 55 60
83 81 79 77 74 77 76 78 62 60 59 63 66 31 21 20 37 38 34 30 27 24 17 12 10 8 11 13 16 19 21 23 25 26 29 34 39 44 48 50 53 57 61
83 82 82 77 72 75 78 65 66 63 63 70 73 63 36 30 23 21 38 37 34 28 23 18 13 11 13 15 17 19 21 23 25 25 29 33 39 44 48 52 55 59 64
82 83 77 81 83 96 82 92 80 72 69 72 78 75 56 37 28 20 24 41 41 35 28 22 18 17 17 17 18 20 22 25 28 27 30 33 40 45 51 57 61 66 71
84 86 84 85 91 99 98 83 72 74 72 77 76 76 73 55 43 31 25 31 34 34 31 26 23 22 20 20 19 21 25 29 31 31 34 38 44 48 54 60 66 71 74
89 85 85 78 77 79 75 72 72 74 79 80 77 78 65 58 48 42 37 33 29 29 31 29 27 25 23 22 23 24 28 31 33 36 40 44 49 53 57 64 69 76 82
83 82 84 82 82 78 81 74 75 79 81 82 79 73 65 55 49 42 43 36 29 25 29 25 25 26 24 23 25 28 32 36 39 43 46 50 54 57 63 67 72 80 86
77 84 85 84 83 85 80 77 80 83 80 82 79 70 63 56 49 43 39 34 28 21 20 22 24 24 23 25 28 31 36 40 44 49 52 55 59 63 68 71 76 80 88
76 82 77 81 86 86 82 83 84 83 79 80 77 69 62 55 50 44 36 31 22 12 17 22 23 27 26 28 32 34 39 43 48 53 58 59 63 68 71 74 73 82 88
76 75 73 81 84 83 84 86 85 80 80 80 76 68 61 56 50 44 36 26 16 15 19 24 28 30 29 32 37 41 45 49 53 56 60 64 68 72 76 67 80 85 88
78 79 76 80 82 84 86 87 85 82 82 82 76 69 63 58 51 44 33 19 18 19 20 27 32 32 32 36 39 44 49 54 59 61 68 73 77 79 66 75 86 87 90
80 83 80 84 83 85 88 87 83 84 84 80 76 71 67 61 54 43 23 22 21 21 24 30 33 35 35 39 44 48 52 58 63 69 74 77 83 75 73 81 86 87 88
80 83 82 82 82 83 89 87 85 85 82 80 76 71 66 60 52 32 24 28 25 23 31 31 35 37 40 45 50 54 58 62 69 73 78 76 80 80 81 85 85 88 84
78 78 81 83 82 84 89 87 85 85 86 83 77 70 66 61 46 27 31 31 26 34 33 33 38 41 45 49 53 58 64 69 74 77 74 86 78 82 89 89 82 81 69
78 80 82 82 80 84 89 89 88 90 89 84 80 73 68 60 44 30 35 31 32 38 34 36 43 49 50 53 57 61 67 70 82 78 76 92 74 88 89 81 79 63 78
75 79 80 81 80 84 89 92 92 91 90 85 79 78 72 59 35 28 38 35 46 42 38 44 53 52 53 54 60 65 69 73 78 81 78 97 85 89 85 87 88 76 70
74 78 80 80 77 80 86 91 92 88 85 82 79 76 69 54 29 37 45 45 50 47 48 49 56 55 56 59 63 67 70 74 77 76 64 81 83 101 98 88 87 63 61
76 76 81 80 78 79 84 91 90 87 85 81 77 72 67 53 40 57 49 54 58 60 52 51 57 58 59 61 61 62 62 62 71 74 61 71 74 75 105 104 63 67 69
71 74 77 79 78 79 82 89 83 83 84 78 73 71 69 59 66 62 55 54 53 55 52 55 60 61 61 62 58 53 52 56 61 71 45 68 80 65 68 106 67 96 95
Wind_Direction_850mb
233 230 230 227 222 212 195 234 249 202 178 168 160 157 150 141 134 129 128 134 126 104 89 83 79 71 64 58 53 46 33 27 24 22 22 25 25 24 24 24 22 19 17
230 235 235 226 231 220 213 208 270 228 209 188 177 170 162 150 143 142 142 146 141 113 95 89 83 75 66 60 54 50 30 24 24 22 23 22 20 19 17 18 18 17 15
232 233 242 226 233 235 216 209 234 244 218 198 187 176 170 164 158 152 150 151 142 130 120 96 76 68 68 60 54 46 32 26 21 19 20 20 20 19 22 21 18 15 13
238 235 236 235 232 238 219 218 210 251 222 206 189 183 180 171 166 167 167 161 161 147 138 103 64 62 61 60 53 43 22 24 20 19 17 17 18 18 21 18 16 14 11
237 234 233 238 240 228 223 215 210 244 233 208 192 186 181 178 178 179 179 179 170 158 148 105 60 45 45 39 33 34 33 23 19 16 15 17 17 17 19 16 13 10 7
234 235 235 240 242 239 221 218 215 227 235 218 193 188 186 187 188 189 188 185 178 173 163 130 62 25 27 15 20 24 23 17 11 12 13 12 10 10 12 11 9 6 3
230 233 238 240 240 242 219 219 219 227 229 212 197 187 188 192 198 199 197 195 194 192 190 196 274 351 349 357 3 9 9 7 6 5 6 6 7 8 7 5 3 1 358
226 234 235 238 237 234 223 218 214 215 224 219 203 188 188 202 209 209 207 204 204 208 213 224 269 308 330 344 354 356 356 356 356 358 2 4 3 2 2 360 357 354 353
228 231 233 234 240 243 229 225 220 231 232 214 210 193 183 209 211 216 215 212 213 219 223 235 256 295 321 331 340 343 340 341 345 349 355 357 354 354 354 352 349 349 348
229 231 229 231 235 226 230 239 232 237 239 223 209 205 204 199 178 191 220 219 220 223 228 238 255 280 299 315 324 325 326 331 335 340 346 345 343 345 345 345 344 343 341
231 229 227 228 232 231 232 239 230 228 236 226 223 215 208 209 203 205 203 215 219 223 231 240 254 268 280 295 308 315 319 322 324 328 333 332 332 336 338 337 338 336 335
231 227 225 231 235 233 236 234 230 233 234 225 223 224 222 222 223 209 213 221 214 222 230 240 249 261 273 283 297 310 312 312 317 320 322 323 326 330 332 331 332 330 330
232 223 225 224 225 227 229 238 236 230 230 226 226 226 225 226 236 225 226 206 193 221 223 237 249 261 268 277 298 306 307 309 313 315 318 319 322 326 326 326 328 327 325
234 228 226 229 232 235 231 233 233 235 230 225 226 226 226 233 234 230 226 218 191 208 220 243 251 257 267 278 300 307 308 313 314 315 317 319 322 323 323 325 325 322 322
235 228 229 231 228 230 232 235 235 235 230 226 225 224 229 233 227 225 220 215 216 199 218 248 260 264 267 289 300 309 312 316 317 316 317 319 322 323 324 324 321 320 320
234 231 230 229 231 230 232 232 232 233 230 224 221 224 226 222 220 215 211 206 205 254 230 259 262 275 281 293 299 306 310 315 317 319 321 323 324 324 323 320 317 319 320
238 231 232 232 232 232 232 231 231 231 226 221 221 222 220 216 212 208 201 204 251 230 250 262 267 276 285 293 299 306 311 314 316 317 319 321 323 323 321 316 319 320 321
236 231 233 234 234 234 231 230 230 226 222 220 220 216 213 209 205 199 203 236 222 241 248 254 263 274 284 291 298 301 307 311 313 317 319 320 320 319 318 318 322 321 322
232 231 232 236 235 235 233 231 232 228 223 221 219 214 211 205 200 199 225 229 229 241 257 257 267 277 286 294 299 303 307 309 312 316 316 315 314 317 316 320 321 322 321
232 233 233 236 238 237 234 230 228 223 220 217 215 212 208 201 199 213 237 228 227 246 253 262 272 283 292 297 300 303 304 308 308 310 312 312 314 315 315 320 319 319 319
237 235 235 235 237 235 234 230 226 222 219 214 211 208 200 196 204 229 231 234 235 246 253 266 278 287 292 295 300 303 303 305 307 311 312 313 312 311 315 319 315 313 315
238 233 234 235 238 238 234 229 225 220 218 215 209 202 196 201 208 233 253 256 233 246 258 272 284 285 291 295 298 299 300 306 309 309 307 308 309 311 314 314 310 310 316
240 234 236 237 239 240 239 231 224 220 217 213 210 204 199 207 217 257 286 243 239 249 261 271 277 283 290 295 295 298 301 303 302 304 305 308 313 311 315 306 312 314 315
241 235 237 238 241 242 239 231 223 220 218 215 212 208 206 211 238 292 274 235 243 250 255 269 276 284 289 295 297 297 299 299 301 305 312 305 308 309 311 309 309 315 311
239 237 237 236 238 239 239 232 222 217 218 216 211 208 210 218 248 275 267 248 244 259 259 266 278 283 288 290 291 294 295 294 294 299 299 293 301 302 308 309 310 306 311
240 240 241 237 237 238 235 230 220 216 216 212 210 213 219 231 259 273 276 259 263 270 269 271 274 280 285 287 289 288 290 291 293 297 302 300 305 306 307 309 304 310 319